EST,Max TemperatureF,Mean TemperatureF,Min TemperatureF,Max Dew PointF,MeanDew PointF,Min DewpointF,Max Humidity, Mean Humidity, Min Humidity, Max Sea Level PressureIn, Mean Sea Level PressureIn, Min Sea Level PressureIn, Max VisibilityMiles, Mean VisibilityMiles, Min VisibilityMiles, Max Wind SpeedMPH, Mean Wind SpeedMPH, Max Gust SpeedMPH,PrecipitationIn, CloudCover, Events, WindDirDegrees
2012-12-1,82,70,57,60,57,54,93,70,42,30.22,30.18,30.14,10,10,10,16,8,21,0.00,0,,60
2012-12-2,83,72,61,63,61,56,93,72,40,30.25,30.20,30.15,10,10,10,17,7,22,0.00,2,,70
2012-12-3,83,72,61,63,56,48,93,66,31,30.25,30.21,30.16,10,10,10,17,8,23,0.00,0,,69
2012-12-4,81,71,60,60,56,53,97,65,45,30.26,30.20,30.16,10,10,10,15,7,20,0.00,4,,72
2012-12-5,78,69,59,64,61,55,93,80,56,30.17,30.10,30.04,10,10,8,12,3,17,0.00,5,,52
2012-12-6,82,72,62,67,62,60,93,77,54,30.04,29.98,29.92,10,10,10,12,5,15,0.02,2,,73
2012-12-7,82,72,61,67,63,58,100,86,48,30.00,29.95,29.90,10,7,1,13,4,15,T,2,,73
2012-12-8,84,75,65,70,67,64,100,87,55,30.05,30.00,29.95,10,9,2,15,3,21,0.37,3,Rain,127
2012-12-9,85,74,63,70,66,63,100,88,59,30.09,30.03,30.00,10,6,0,12,2,14,0.00,2,Fog,285
2012-12-10,86,76,66,73,70,64,97,87,65,30.01,29.96,29.90,10,9,2,18,6,26,0.05,5,Rain,173
2012-12-11,79,76,72,73,71,69,94,91,74,30.04,29.96,29.92,10,8,1,14,5,22,0.47,6,Rain-Thunderstorm,180
2012-12-12,80,75,70,74,72,68,100,92,79,30.08,30.04,29.99,10,8,1,16,5,22,0.88,6,Rain-Thunderstorm,174
2012-12-13,74,68,62,72,64,56,97,82,66,30.17,30.09,30.03,10,9,2,17,10,23,0.08,7,Rain,12
2012-12-14,78,69,59,62,59,55,90,78,54,30.18,30.13,30.07,10,10,10,17,10,23,0.00,4,,40
2012-12-15,81,71,61,64,60,57,100,75,45,30.13,30.07,30.03,10,10,9,13,6,16,0.00,3,,73
2012-12-16,82,72,61,66,63,61,100,79,54,30.06,30.01,29.95,10,10,10,10,3,15,0.00,2,,133
2012-12-17,81,73,65,69,66,64,100,83,58,30.00,29.96,29.91,10,10,3,15,4,22,0.00,2,,196
2012-12-18,82,73,64,72,67,63,100,90,62,30.04,29.96,29.91,10,5,0,15,5,18,0.00,1,Fog,254
2012-12-19,82,69,55,61,55,50,93,68,35,30.12,30.06,30.04,10,10,9,9,2,14,0.00,0,,41
2012-12-20,82,72,61,68,63,55,93,75,51,30.10,30.04,29.96,10,10,10,16,6,22,0.00,0,,177
2012-12-21,74,63,51,68,48,34,84,61,29,30.23,30.10,29.98,10,10,7,24,14,31,0.13,2,Rain,332
2012-12-22,66,56,45,40,31,20,70,46,16,30.32,30.25,30.21,10,10,10,15,7,20,0.00,0,,360
2012-12-23,71,55,39,52,43,33,86,64,38,30.27,30.20,30.15,10,10,10,9,2,12,0.00,0,,64
2012-12-24,75,64,52,58,54,50,96,74,49,30.15,30.08,29.99,10,10,10,12,3,14,0.00,0,,176
2012-12-25,78,68,57,61,57,55,93,74,45,30.04,30.00,29.93,10,10,10,12,4,14,0.00,0,,156
2012-12-26,79,69,59,72,63,53,97,82,72,30.02,29.92,29.83,10,9,1,22,10,30,0.16,5,Rain,266
2012-12-27,69,60,50,53,47,41,89,70,39,30.10,30.05,30.01,10,10,10,12,5,14,0.00,0,,357
2012-12-28,75,62,48,69,58,45,93,81,61,30.08,30.02,29.95,10,9,2,10,4,20,0.02,5,Rain,92
2012-12-29,79,68,57,72,67,51,93,86,73,30.17,30.00,29.92,10,10,7,18,11,23,0.00,5,,237
2012-12-30,63,54,44,49,42,35,83,66,39,30.33,30.27,30.17,10,10,10,21,11,26,0.00,0,,32
2012-12-31,78,63,47,56,51,45,93,71,46,30.32,30.26,30.17,10,10,7,16,5,23,0.00,0,,86